Theta_e
318 319 320 321 320 319 323 324 325 331 326 323 330 328 321 324 321 319 323 322 322 325 324 323 326 320 318 319 319 322 319 323 322 317 326 333 327 325 324 319 321 321 321 322 322 324 324 325 325 326 331 333 334 335 336 335 335 335 335 335 335 335 336 336 337 337 336 337 337 337 336 335 334 334 334 334 334 334 334 334 335 335 336 336 337 338 338 338 338 339 339 339 339 339 339 338 340
319 320 321 321 321 318 325 326 326 335 331 324 326 329 324 321 321 324 327 330 331 325 323 324 324 321 319 320 317 318 321 324 324 327 332 329 327 326 320 319 320 320 321 321 321 322 324 325 326 325 329 333 334 334 335 334 334 334 334 334 334 334 335 336 336 336 336 336 337 337 337 337 337 336 335 335 334 333 334 334 333 333 334 335 336 337 338 338 338 339 339 339 339 339 339 339 340
319 319 322 321 320 320 333 329 325 331 323 322 325 331 325 318 325 329 330 331 332 323 322 320 318 321 319 319 317 318 326 329 328 336 338 328 329 325 317 320 318 319 320 319 320 320 323 324 326 326 327 332 333 333 334 334 334 333 333 333 332 334 335 335 335 335 336 336 336 336 337 337 337 337 337 337 336 335 336 335 336 337 337 337 337 337 338 338 338 339 339 339 339 338 339 339 339
318 319 320 320 321 327 348 338 335 333 320 326 325 329 331 323 325 329 332 331 329 324 321 318 317 318 316 319 318 318 325 328 327 335 340 329 326 322 317 319 317 318 318 319 320 320 322 323 325 326 326 330 331 332 333 333 333 332 333 332 332 332 334 334 335 335 334 335 335 335 336 336 336 337 337 337 337 337 337 337 337 338 339 339 338 338 338 339 339 338 339 339 339 339 339 338 338
317 320 317 320 324 327 339 331 333 330 323 334 324 327 337 331 327 325 332 332 329 325 320 319 319 317 315 320 320 322 328 325 322 325 331 328 324 319 318 319 318 318 318 319 320 320 321 322 323 324 325 328 331 331 331 332 332 332 332 332 332 331 332 333 334 334 334 334 333 334 334 334 335 335 336 336 337 337 337 337 337 337 337 338 338 338 339 339 338 338 339 338 338 338 338 337 338
317 319 318 319 320 321 328 326 329 330 330 334 325 330 334 331 325 322 330 330 326 324 321 319 319 319 319 323 320 323 326 322 325 328 327 328 323 318 320 319 319 318 319 319 319 320 320 321 322 322 323 326 329 330 329 330 330 331 332 332 331 330 331 332 333 333 333 334 333 334 334 334 334 334 335 334 335 335 335 335 336 336 337 337 337 337 338 338 338 338 339 338 338 338 338 338 338
317 319 324 324 320 322 331 331 332 335 331 325 326 330 328 329 322 320 328 325 322 322 319 322 324 321 322 322 320 320 320 322 328 331 329 326 322 318 320 319 319 319 319 320 319 320 320 321 321 322 322 323 326 328 329 328 329 329 330 331 330 330 331 331 332 332 332 333 333 333 333 333 334 334 334 333 333 333 333 334 334 335 335 336 336 337 337 337 338 338 338 338 338 337 337 337 337
318 322 326 329 328 328 332 333 332 332 327 321 323 325 324 328 322 318 325 323 322 322 319 328 328 323 326 320 324 326 319 325 328 327 329 326 321 319 320 320 320 319 320 320 320 321 320 321 322 322 322 322 323 326 328 328 329 329 329 329 329 330 330 331 331 331 332 332 332 332 332 333 333 333 333 333 333 333 333 333 333 334 334 335 335 336 336 337 337 337 337 338 338 337 337 336 336
318 321 325 329 326 326 331 332 328 325 326 325 323 324 322 324 322 318 322 323 322 323 324 331 326 322 330 323 329 330 319 325 325 325 328 324 322 320 320 320 320 320 320 320 320 321 321 322 322 322 322 323 322 323 325 325 327 328 328 328 329 330 330 331 331 331 331 331 332 331 332 332 332 332 332 332 333 334 333 333 333 333 333 334 335 335 336 336 336 336 337 337 337 337 337 336 337
317 320 326 330 327 327 330 328 326 325 327 328 325 322 320 319 320 320 322 321 322 323 326 329 324 323 328 324 331 327 321 325 322 325 327 323 321 320 321 319 319 320 320 321 321 321 321 322 322 322 322 323 323 322 322 322 323 326 327 328 328 329 329 330 330 331 331 331 332 332 333 333 333 334 333 333 334 334 334 334 334 334 334 334 335 335 336 336 336 336 336 336 337 337 337 337 336
322 327 328 330 332 328 327 326 324 326 328 328 325 322 320 319 317 319 322 320 325 324 323 325 324 331 328 326 337 326 322 326 323 326 326 324 321 320 320 319 319 319 320 321 320 321 321 322 322 322 323 323 324 323 323 322 322 323 325 327 328 328 329 329 329 331 331 332 332 333 334 334 334 334 334 334 334 334 334 335 334 334 334 335 335 335 336 336 336 336 336 336 337 337 337 337 337
320 332 334 332 334 328 326 328 324 324 328 328 327 326 322 320 316 319 325 321 326 328 327 325 324 332 329 335 342 325 320 325 325 326 325 324 321 320 320 318 319 319 320 320 319 320 320 321 321 322 322 323 323 324 324 323 322 322 323 325 326 327 327 327 328 330 330 331 331 332 332 332 333 332 333 333 333 333 333 333 332 332 332 333 334 334 335 335 336 336 336 336 336 337 336 336 336
320 329 333 328 332 333 329 329 330 327 328 329 328 326 318 318 318 320 328 325 324 327 328 328 328 327 326 337 339 330 327 323 324 325 324 324 321 320 320 319 319 319 319 318 319 319 320 321 321 321 321 322 322 323 323 323 322 322 322 322 323 324 324 325 327 328 329 329 329 330 331 332 332 332 333 332 332 331 330 330 329 329 329 329 329 330 331 332 333 334 335 335 335 336 336 336 336
320 327 328 322 327 333 330 327 331 327 324 326 326 325 319 317 320 322 325 324 325 327 325 325 328 327 326 332 340 350 338 320 324 325 324 323 321 321 320 320 319 319 319 318 320 320 320 320 320 321 321 321 321 321 322 322 322 322 322 322 322 321 322 323 324 325 325 326 326 327 328 329 329 330 331 330 329 327 327 326 325 325 324 325 324 325 325 326 327 328 329 331 333 334 334 335 335
319 327 327 325 327 328 327 325 327 324 321 324 323 322 321 318 320 323 322 320 323 324 320 320 323 325 330 330 337 350 330 317 324 324 324 322 321 321 320 321 319 319 319 319 320 320 321 320 321 321 321 321 321 321 321 321 322 322 322 322 322 322 321 322 323 323 324 324 325 326 326 326 327 328 329 328 326 324 324 323 323 323 322 322 322 323 323 322 323 323 323 323 326 330 332 333 333
321 329 326 325 329 326 323 326 325 322 324 327 324 318 319 320 317 318 319 318 318 317 320 325 322 321 330 331 327 328 320 319 324 324 325 322 321 321 321 321 319 320 320 319 319 320 320 320 321 320 321 321 320 321 320 321 321 322 323 323 322 322 321 321 322 323 323 323 323 324 325 326 327 327 327 326 325 323 323 323 323 322 321 321 321 321 322 323 323 323 323 322 322 324 327 330 331
320 325 323 322 327 324 322 326 324 325 328 329 326 319 319 322 319 316 314 315 317 319 326 330 321 320 330 331 321 318 317 318 322 325 325 322 323 322 322 321 319 320 321 320 319 320 319 319 320 320 321 320 320 320 320 320 321 321 322 323 322 322 322 321 322 321 321 322 322 322 323 325 326 327 326 325 324 324 323 323 322 321 321 319 318 319 320 322 323 323 323 323 323 322 322 324 328
317 321 322 321 322 321 322 325 324 322 322 324 325 320 318 321 321 318 315 317 319 319 323 325 319 318 322 321 317 316 316 317 321 325 325 324 324 323 323 321 320 320 322 321 319 319 318 318 319 320 320 321 321 320 320 320 320 321 321 322 322 322 321 321 321 321 322 322 323 323 323 324 325 326 325 325 324 324 323 322 321 321 321 318 320 324 325 323 322 323 323 322 322 322 322 322 323
319 323 321 320 320 320 322 325 324 319 317 321 324 320 318 319 319 317 317 320 320 319 319 320 319 318 318 315 314 314 314 317 320 324 325 325 324 323 322 321 320 320 322 321 318 319 318 318 319 319 320 321 321 320 320 320 320 320 321 322 322 321 321 321 321 322 323 323 324 324 324 324 325 324 324 324 324 323 323 322 321 321 320 318 323 328 328 326 325 324 324 323 323 322 322 323 323
319 322 318 318 320 319 319 323 324 322 319 320 321 322 320 319 318 316 317 320 320 319 318 317 320 320 320 320 314 310 312 316 320 323 324 324 324 323 322 321 320 320 323 322 319 319 319 318 319 319 320 321 321 321 320 320 320 320 321 322 321 321 321 321 322 323 323 323 323 324 324 324 323 323 323 323 323 323 323 322 321 321 320 318 322 325 325 325 324 324 325 325 325 323 321 322 324
319 318 316 319 318 317 317 320 322 322 320 318 320 323 320 318 318 317 317 320 319 317 319 319 318 319 320 323 317 307 310 316 319 322 322 322 323 324 324 323 322 320 323 322 319 320 319 318 318 319 320 321 321 321 320 320 320 321 321 322 322 321 321 322 322 322 322 322 322 323 323 322 322 322 322 323 323 323 322 322 321 321 320 320 321 321 322 324 323 323 324 324 325 324 322 322 324
317 316 316 318 316 315 315 318 321 322 320 318 321 321 319 318 317 318 319 319 317 317 322 322 320 321 320 319 315 310 316 324 320 318 319 320 321 323 324 324 323 321 322 321 319 320 320 319 319 319 319 320 321 321 321 321 320 321 321 321 322 322 322 322 322 321 321 321 321 321 322 321 321 321 321 322 322 322 322 321 321 321 321 321 321 320 322 324 322 321 321 322 325 324 322 322 324
316 316 316 317 316 315 314 316 319 320 319 318 320 320 318 317 316 318 319 317 316 317 321 324 322 317 314 312 313 315 323 330 323 316 318 319 320 322 323 324 323 321 322 321 319 321 321 320 319 319 319 320 321 322 322 321 321 321 322 322 322 322 322 322 321 320 320 321 321 320 321 321 321 321 321 321 321 321 321 320 320 321 321 320 320 320 322 323 321 321 320 321 324 324 323 322 323
316 315 315 315 315 315 313 313 314 316 316 317 318 317 315 316 316 315 316 315 316 318 317 320 317 309 310 314 316 317 319 319 316 313 316 318 320 321 321 323 323 321 323 322 320 321 320 317 316 318 319 320 321 322 322 322 321 321 322 322 323 322 322 321 320 319 320 320 320 320 320 320 321 321 321 320 320 319 319 318 318 320 321 320 319 320 321 321 320 321 321 322 323 324 323 323 323
316 316 315 315 315 315 315 314 313 314 315 315 315 315 314 314 314 312 313 313 314 317 315 316 315 312 315 317 316 315 315 314 310 308 311 315 317 320 321 321 321 321 323 322 321 320 317 315 315 317 317 318 320 321 322 322 322 322 322 323 323 322 321 319 318 318 318 319 320 319 319 320 320 320 320 319 318 318 318 318 318 320 321 320 318 319 320 320 319 319 320 321 322 323 323 323 322
317 315 315 314 314 314 314 314 314 314 313 314 314 313 312 312 312 312 312 312 313 313 313 313 314 315 316 315 314 314 314 315 311 307 308 310 313 316 319 320 320 321 322 321 319 318 315 314 314 315 315 317 319 321 322 322 322 322 323 323 322 321 319 318 317 317 317 318 318 318 319 319 319 318 318 318 317 317 317 318 318 319 320 320 319 318 318 318 318 318 318 320 321 321 322 322 322
315 313 313 313 313 312 312 312 313 312 311 312 312 312 312 311 311 313 315 317 317 315 314 314 315 315 315 315 314 312 312 312 309 307 308 308 308 310 313 315 317 319 320 318 317 316 315 314 315 314 315 316 318 320 321 322 322 322 323 322 321 320 318 317 317 317 317 317 317 317 317 317 317 317 317 317 317 317 317 317 318 319 320 320 319 318 317 317 317 317 317 318 319 319 319 320 321
315 314 314 315 314 313 312 312 313 312 313 312 312 312 312 312 312 312 314 315 316 316 315 315 316 317 316 315 313 311 312 309 306 306 307 307 307 309 310 311 313 316 317 316 315 315 315 315 315 314 315 316 317 319 321 322 322 322 322 321 320 319 318 317 317 316 316 316 315 316 316 316 316 316 316 317 317 316 316 316 316 317 317 317 317 317 316 316 316 315 316 317 317 317 317 318 318
315 315 316 317 316 315 315 314 314 313 314 314 313 314 313 312 313 313 312 312 313 313 312 312 314 314 313 312 311 311 310 306 304 303 305 307 308 309 310 311 313 314 314 315 314 314 315 314 315 315 315 315 316 318 321 322 322 322 322 321 319 318 317 316 315 314 314 313 313 313 313 313 314 314 314 315 315 315 315 315 315 315 315 314 314 315 315 314 314 314 314 315 315 315 315 316 316
316 317 317 317 316 316 316 314 313 312 313 314 314 316 314 312 315 316 314 312 311 311 312 311 310 310 310 310 309 310 309 306 304 302 304 306 307 309 310 312 313 313 313 313 314 314 314 314 314 314 314 314 315 318 321 322 322 322 320 320 318 317 316 315 314 313 312 311 311 310 310 310 310 311 312 313 313 313 314 314 313 313 313 313 313 314 313 313 313 313 313 313 313 313 313 314 314
318 318 317 318 317 315 315 314 313 313 314 314 314 316 315 311 315 318 313 310 310 311 311 310 309 308 308 308 308 309 308 305 302 302 304 305 306 309 311 311 312 312 313 313 313 313 313 313 313 313 313 314 315 318 321 321 321 321 319 318 317 316 315 314 313 312 311 310 309 309 308 308 307 308 309 310 311 311 312 311 311 311 311 311 312 312 313 313 313 312 312 312 311 312 312 312 312
317 318 317 319 318 314 315 316 313 314 314 312 314 316 315 311 315 317 311 309 310 310 310 309 309 308 307 308 307 308 307 304 301 302 304 305 307 309 310 311 311 311 312 312 312 312 313 313 312 313 313 314 316 319 320 320 320 319 318 316 315 314 313 312 311 310 310 309 308 307 306 305 305 306 307 308 309 309 309 309 309 309 309 310 310 310 311 312 312 311 310 310 310 310 310 310 310
316 318 317 318 317 315 316 316 314 314 313 312 313 314 314 312 314 315 311 310 311 311 311 310 310 308 307 308 307 307 308 308 307 305 304 306 307 309 310 310 310 311 312 312 312 312 312 312 312 313 313 315 318 319 319 319 318 317 315 314 313 312 311 311 309 309 308 307 306 305 304 304 304 305 305 306 307 307 308 307 307 307 307 308 308 309 309 309 310 310 309 309 309 308 308 309 309
316 318 317 316 315 315 315 316 317 316 314 313 314 313 313 311 312 313 311 311 312 311 311 311 310 308 308 308 308 309 309 312 313 307 305 307 307 309 310 309 310 311 311 312 312 312 312 312 312 312 314 315 317 318 318 317 316 314 313 312 311 310 309 308 307 307 306 305 304 303 303 303 303 304 304 305 305 305 306 306 306 306 306 306 306 307 307 307 307 307 307 307 307 307 307 307 307
317 318 318 316 315 316 314 314 317 316 314 315 314 313 312 312 312 312 312 312 311 311 310 310 309 308 308 307 308 312 314 315 312 306 306 307 308 309 309 309 310 310 311 312 311 312 312 312 312 313 314 315 316 316 316 315 313 312 311 310 309 308 306 305 304 304 304 303 303 303 303 303 303 304 304 304 304 304 304 304 304 304 305 305 305 306 306 306 306 305 305 305 305 305 304 304 305
317 317 317 316 315 315 314 313 316 314 313 314 314 314 313 313 313 312 312 312 311 310 309 309 309 308 308 307 308 311 316 316 309 304 307 308 307 308 308 309 310 310 311 311 311 312 312 312 312 313 314 314 315 314 314 313 312 310 309 308 307 305 304 303 303 303 302 302 302 301 302 302 302 303 303 303 303 303 303 303 302 303 303 303 304 304 304 304 304 304 303 304 304 304 304 304 303
316 316 316 316 316 316 315 314 315 314 314 314 314 314 313 313 313 312 312 312 311 310 310 310 310 310 309 309 309 310 313 313 307 305 307 307 307 307 308 309 309 309 310 310 311 311 311 312 312 313 313 313 313 313 313 312 311 309 308 307 305 303 302 302 301 301 301 300 300 300 300 300 301 301 301 301 301 301 301 300 300 300 300 300 301 301 301 301 301 301 302 302 302 302 302 302 302
316 316 316 316 316 316 315 314 315 315 314 314 314 315 314 313 313 312 312 312 311 310 310 311 310 311 310 310 310 309 311 312 309 307 306 305 306 306 307 308 308 308 309 309 310 310 311 312 312 313 312 312 312 312 312 311 310 309 308 306 303 301 300 301 300 299 299 299 298 298 298 298 299 299 299 299 299 299 298 298 298 298 298 298 298 298 299 299 299 300 300 300 300 300 300 299 300
316 316 316 317 316 315 315 315 315 314 314 315 315 314 313 312 312 311 311 311 311 311 311 311 311 311 310 310 310 309 311 313 311 309 305 303 304 305 305 306 306 307 307 308 309 310 310 311 311 312 311 311 311 311 311 310 309 308 307 304 302 300 299 298 298 297 297 298 297 297 297 297 297 297 296 296 296 296 296 296 295 296 296 296 296 296 297 297 297 298 298 298 298 299 298 297 298
315 316 316 317 316 315 315 316 316 314 314 315 314 313 312 312 312 312 312 312 312 312 312 311 311 310 310 310 310 309 311 313 311 309 307 303 302 303 303 304 305 305 306 307 308 308 308 309 309 309 309 310 309 309 309 308 306 305 304 301 300 299 297 296 296 295 296 296 296 296 295 295 295 295 295 295 295 294 294 294 294 294 294 294 294 295 295 295 295 295 295 296 296 296 296 296 297
315 315 315 316 315 315 315 314 314 313 314 314 313 314 314 313 314 313 312 314 314 313 312 311 310 310 310 310 310 309 309 311 310 309 307 304 302 302 302 302 303 303 304 305 305 306 307 307 307 307 307 307 307 307 306 305 304 302 300 298 297 296 294 294 295 294 295 295 294 294 294 294 294 294 294 293 293 293 293 293 293 293 293 293 293 293 293 292 293 293 293 294 294 293 294 294 295
315 314 314 315 314 314 315 314 314 314 315 314 315 317 317 314 314 313 312 313 314 313 312 312 311 310 310 309 309 309 308 309 309 308 307 305 302 300 300 301 301 301 301 302 303 304 305 305 305 306 306 306 305 305 305 304 303 301 299 297 295 294 292 293 294 293 293 294 293 292 292 293 293 293 293 292 292 292 292 292 292 292 292 292 292 292 291 291 291 291 291 292 292 292 292 293 292
315 315 315 315 315 314 314 314 314 315 316 315 314 317 317 315 314 313 313 314 313 313 313 313 312 311 310 309 309 308 308 308 309 308 306 304 301 299 299 299 299 299 299 300 301 302 303 303 304 304 305 304 304 303 303 303 302 300 299 298 296 295 293 292 292 292 292 292 291 291 291 292 292 292 292 292 291 291 291 291 291 291 291 291 291 291 290 290 290 290 290 290 290 290 291 290 289
315 316 317 317 317 315 314 314 314 314 315 315 314 315 316 316 315 314 314 315 313 313 314 313 313 311 310 310 309 309 309 309 310 308 306 304 301 299 298 297 297 297 297 298 299 300 301 302 302 303 303 303 302 302 302 301 301 299 298 297 295 295 294 291 290 290 290 291 290 290 290 291 291 291 291 291 290 290 291 291 290 290 291 290 290 289 289 289 289 289 289 289 289 289 289 289 288
315 315 316 316 317 316 314 314 314 314 315 316 315 315 317 317 315 314 314 314 314 313 314 315 314 312 310 310 310 309 309 309 309 308 305 303 300 298 297 296 295 294 294 295 296 298 299 300 301 302 302 302 302 301 301 300 300 299 297 297 295 294 293 291 289 289 289 290 290 289 289 289 289 290 290 290 290 290 290 289 290 290 290 289 289 288 288 288 288 288 288 288 288 288 288 288 288
314 313 314 314 313 314 314 314 314 314 315 317 315 315 318 318 315 314 315 315 314 314 314 315 314 313 311 311 311 310 311 311 309 307 304 302 298 296 295 293 292 292 292 293 294 295 297 298 299 300 300 301 301 301 301 300 299 298 297 297 295 292 291 289 288 288 288 289 289 288 288 288 288 289 289 289 289 289 288 288 288 288 288 288 288 288 287 287 287 287 287 287 287 287 287 287 287
312 313 314 314 313 314 314 313 313 314 316 316 314 315 317 318 316 314 314 314 314 314 313 313 314 313 312 311 310 311 313 312 309 305 302 298 294 293 292 291 289 289 290 291 292 293 294 295 297 298 298 299 300 300 299 298 298 298 297 296 295 292 290 289 288 287 287 288 288 287 287 287 288 288 288 288 288 287 287 287 287 286 286 286 286 286 286 286 286 286 286 286 286 286 286 286 286
311 313 314 315 316 315 315 314 312 315 318 316 315 316 317 317 316 313 313 314 315 315 314 313 314 313 312 312 310 312 313 311 306 303 300 295 292 291 289 288 287 287 288 289 290 291 292 293 295 296 294 295 297 297 298 297 296 296 296 295 294 292 290 289 288 287 287 287 287 287 287 287 287 287 287 287 287 286 286 286 285 285 285 285 285 284 284 284 284 284 285 285 285 285 285 285 285
312 314 314 315 317 317 317 317 315 317 317 315 316 316 316 316 314 311 312 315 316 315 313 313 313 311 311 311 311 313 312 307 303 301 297 295 293 290 288 286 286 286 286 286 287 288 290 291 294 294 291 292 294 295 296 295 294 294 294 293 292 291 290 289 288 288 287 287 287 286 286 286 286 286 286 286 285 284 285 284 284 284 283 283 283 283 283 283 283 284 284 284 284 284 284 284 283
313 314 315 316 317 317 318 317 317 317 316 315 313 312 315 315 313 312 312 311 312 311 311 311 311 311 310 310 312 314 311 305 302 299 296 294 293 290 288 286 285 285 285 285 285 286 287 288 290 291 289 289 291 292 293 292 292 292 292 291 291 290 289 288 288 288 287 287 286 286 285 285 284 284 284 283 283 283 283 283 283 283 283 282 282 283 282 282 282 282 282 283 283 283 283 283 282
312 313 315 316 316 317 317 317 317 317 317 315 311 312 317 316 313 315 314 312 314 316 316 313 311 312 311 312 315 314 310 303 300 298 295 294 292 289 287 286 285 284 284 284 284 284 285 286 287 288 287 287 288 289 290 290 289 289 289 289 289 289 289 288 288 287 286 286 285 284 284 283 283 282 282 282 282 283 283 282 283 282 282 282 282 282 282 282 282 282 281 281 281 282 282 282 282
313 313 315 316 316 316 316 316 316 316 316 315 312 314 317 313 310 312 312 312 313 316 317 315 315 316 313 314 316 314 307 302 298 296 294 292 290 287 286 285 284 284 283 283 283 283 284 284 285 286 285 286 287 288 288 288 288 288 288 288 288 288 288 287 287 286 285 284 284 283 283 282 282 282 282 282 282 282 282 282 282 282 281 281 281 281 281 281 281 281 281 280 280 280 280 281 281
313 312 315 315 315 316 316 315 315 315 317 317 315 315 314 312 311 311 311 312 312 311 312 311 312 314 314 314 315 312 305 300 297 295 293 291 288 286 285 284 283 283 282 282 282 282 283 283 284 284 284 284 286 286 287 287 287 287 287 287 287 287 287 286 285 284 284 283 283 283 282 282 282 281 281 281 281 281 281 281 281 280 280 280 280 280 280 280 280 280 280 279 279 279 279 279 279
313 314 315 312 313 315 314 315 316 316 316 316 316 316 314 313 313 313 313 315 315 314 313 312 310 311 313 313 313 308 302 298 296 294 291 289 287 285 284 284 283 282 282 281 281 281 281 282 282 282 282 283 284 285 285 286 286 286 286 286 286 286 286 285 284 283 283 282 282 282 281 281 281 280 280 280 280 280 280 280 279 279 279 279 279 278 278 278 278 278 278 278 278 278 278 278 278
312 314 314 311 313 315 313 314 315 315 315 315 315 314 313 312 312 312 312 313 314 314 315 316 315 313 313 312 311 306 300 296 294 292 290 288 286 284 283 282 282 282 281 281 280 280 280 280 281 281 281 281 282 283 284 284 285 285 285 284 284 284 284 283 283 283 282 282 282 281 281 280 280 279 279 279 279 279 279 279 278 278 278 278 278 277 277 277 277 277 277 277 277 277 277 277 277
310 311 312 311 311 314 313 314 314 315 315 315 315 314 312 311 311 311 311 311 312 313 314 317 318 315 313 311 311 306 299 296 293 290 288 286 284 283 282 281 281 281 280 280 280 280 279 279 280 280 280 281 281 282 282 283 284 284 283 283 283 283 283 282 282 282 281 281 280 280 279 279 278 278 278 278 278 278 278 278 277 277 277 277 276 276 276 276 276 276 276 276 276 276 276 276 275
312 312 313 311 310 313 314 313 313 314 315 315 315 315 312 310 311 313 313 312 312 313 314 314 316 317 314 311 310 306 299 294 291 288 287 285 283 281 281 281 280 280 279 279 279 279 279 279 279 279 279 280 280 280 281 282 282 282 282 282 281 281 281 281 280 279 279 279 278 278 278 278 278 278 277 277 277 277 277 276 276 276 275 275 275 275 275 275 275 275 275 275 275 275 275 275 274
315 314 314 313 313 313 314 315 314 313 314 315 315 314 312 310 313 315 313 311 312 314 315 313 315 317 314 310 308 303 297 292 289 287 285 283 282 280 280 280 279 279 279 278 278 278 278 278 278 278 279 279 279 279 280 280 280 281 281 280 280 279 279 278 278 278 278 277 277 277 277 277 277 277 276 276 276 276 275 275 275 274 274 274 274 274 274 274 274 274 274 273 273 273 273 273 273
Wind_Speed
18 18 16 14 14 9 5 4 2 3 3 1 3 1 3 3 1 3 3 3 1 3 3 2 4 3 1 2 6 6 5 6 5 3 4 5 3 6 8 6 6 6 7 7 7 8 7 8 8 12 13 11 13 13 9 9 9 9 8 8 10 10 9 8 8 7 8 7 7 6 6 6 6 6 6 7 7 7 7 7 8 8 8 8 8 9 9 10 11 12 12 12 13 13 13 13 12
19 19 16 12 10 5 2 3 2 3 4 3 4 3 3 3 1 4 6 5 5 3 2 1 2 1 2 2 2 1 4 6 6 4 3 3 3 7 8 7 8 6 7 7 7 7 6 7 7 10 12 9 11 13 9 8 8 8 8 8 9 10 9 9 8 8 8 8 8 7 7 6 6 6 6 7 7 7 7 7 8 9 9 9 9 9 9 10 11 12 12 12 13 13 13 13 13
20 18 17 12 6 4 1 3 2 1 3 3 5 4 2 2 4 7 9 8 7 4 4 2 1 1 2 3 0 2 4 5 3 2 3 3 4 6 10 9 9 8 7 7 6 6 6 6 6 9 11 9 9 12 10 8 8 8 8 8 9 10 10 9 9 9 9 9 9 8 8 7 7 7 7 7 8 8 8 8 9 9 9 10 10 11 11 10 11 11 11 11 12 13 12 14 13
17 15 16 10 2 4 4 3 1 3 0 3 3 5 2 2 6 8 8 8 6 4 3 1 1 2 3 3 3 1 4 4 3 4 1 4 6 7 11 9 9 9 8 8 7 6 5 5 5 7 9 9 7 10 11 9 8 9 8 8 8 10 11 10 10 10 10 10 9 9 9 9 8 8 8 8 9 9 9 9 10 10 9 10 10 11 11 10 11 11 12 12 12 13 12 14 13
15 12 12 7 2 2 3 2 2 3 2 4 2 6 5 6 6 7 7 7 6 3 2 1 2 2 1 3 2 1 5 3 3 6 2 3 7 9 11 10 9 8 8 8 7 7 6 5 4 5 7 8 7 8 10 10 10 11 10 8 9 10 11 12 12 11 11 11 11 11 11 10 10 10 10 10 10 9 9 10 10 10 10 10 10 10 10 10 11 11 12 12 13 13 12 13 13
15 9 7 7 3 1 2 1 2 2 5 5 2 6 5 6 5 5 7 8 5 5 4 2 1 1 1 3 2 3 4 0 0 6 5 3 9 11 11 9 9 8 8 8 7 7 6 5 4 5 5 6 7 7 8 9 10 12 12 9 9 8 9 11 12 13 12 12 11 12 12 12 12 11 11 11 10 10 11 11 11 11 11 12 11 11 11 11 11 11 12 13 13 13 13 12 13
14 8 4 6 2 1 3 2 4 3 5 6 4 6 6 5 4 3 7 5 2 3 2 3 1 2 2 3 2 4 4 3 2 3 4 7 11 12 11 9 8 8 7 7 6 6 5 5 5 4 4 4 6 7 7 7 8 9 11 11 9 8 7 9 10 11 12 13 13 13 13 14 13 13 12 12 12 12 12 12 13 13 13 13 13 13 12 12 12 12 13 13 14 14 13 13 13
11 5 1 3 1 3 3 2 4 4 4 4 5 7 7 6 3 2 4 1 2 3 1 3 0 1 4 2 1 5 4 6 4 3 5 9 12 12 11 9 8 7 6 6 5 6 5 5 5 4 3 2 3 5 6 7 7 7 9 10 9 8 7 8 8 9 10 11 12 13 13 14 14 15 14 13 12 12 13 13 14 14 15 15 14 14 14 14 14 14 13 13 13 14 14 14 14
7 4 1 3 1 2 1 3 4 3 5 5 5 7 6 5 3 3 5 4 3 2 3 5 1 3 4 3 4 6 3 6 6 6 7 10 13 12 11 8 6 6 5 5 5 5 5 5 4 4 3 2 2 3 4 6 8 8 9 9 8 8 8 7 7 8 9 9 10 10 11 11 12 12 13 13 12 12 12 12 13 14 15 15 15 15 15 15 15 15 14 13 14 14 14 14 14
5 4 1 2 2 2 4 3 3 3 6 5 7 8 6 5 4 5 6 6 4 2 4 4 2 3 3 2 5 4 2 5 7 8 8 11 12 11 10 7 5 5 5 5 5 5 5 5 4 4 4 4 3 2 3 3 5 7 8 7 7 8 8 8 8 7 8 9 9 8 6 6 6 7 9 10 10 10 10 10 11 12 13 13 14 14 15 15 15 15 15 15 15 15 14 14 14
2 4 2 2 2 2 4 4 5 4 5 5 7 8 7 6 3 3 5 5 5 3 3 2 2 3 1 3 4 4 4 5 8 8 8 11 12 12 10 7 6 5 6 5 5 6 5 5 5 5 5 5 4 3 3 3 3 4 6 6 7 7 8 9 8 8 8 8 8 7 6 5 6 6 7 8 8 9 9 9 10 10 11 12 13 13 14 15 15 15 15 16 16 16 16 16 16
1 3 3 2 1 3 4 4 7 6 5 4 6 6 3 5 4 4 5 5 4 3 5 4 2 3 3 3 4 5 7 9 10 7 8 13 14 13 10 8 7 5 6 6 7 7 6 6 6 6 6 6 6 5 4 3 3 3 3 6 7 8 10 11 9 9 8 8 9 8 8 8 8 7 7 8 8 9 9 10 10 10 11 12 13 13 14 14 15 16 16 17 17 17 16 17 17
1 1 4 1 3 2 2 3 6 6 5 4 5 4 1 4 4 7 6 4 3 1 7 7 3 3 2 4 3 6 7 8 9 10 10 14 16 14 12 10 7 6 6 8 8 6 6 6 5 5 5 6 6 6 6 5 4 3 3 4 6 7 8 9 10 11 10 9 10 9 8 9 9 9 8 7 7 8 9 9 10 10 11 11 12 13 14 15 15 16 16 17 17 18 17 17 17
1 2 4 1 1 1 2 3 4 4 5 4 4 4 1 2 4 4 5 3 6 5 5 6 6 2 3 3 4 5 4 5 5 13 13 15 18 16 13 11 9 7 7 8 8 7 6 5 5 5 5 5 6 7 7 6 5 4 3 3 4 4 4 5 7 9 10 10 11 11 11 12 11 10 9 8 7 7 7 8 8 9 10 11 12 13 14 15 15 16 16 17 17 17 17 17 17
2 2 4 1 1 1 3 4 4 4 5 4 3 3 3 4 2 2 4 4 7 5 1 1 5 2 3 4 4 5 3 5 4 13 15 17 19 17 15 13 11 9 8 8 8 7 5 6 5 4 5 5 5 6 7 6 6 5 4 3 3 3 2 2 2 4 5 6 7 8 9 9 9 8 8 7 6 6 6 7 8 9 11 12 13 14 14 15 16 16 17 17 17 17 16 16 17
2 3 4 1 3 2 4 4 2 2 6 5 3 1 3 7 1 1 4 3 4 3 1 3 4 2 4 6 6 4 2 5 3 12 16 17 19 19 17 15 13 11 10 10 9 7 5 5 5 4 4 3 4 5 6 6 6 5 5 3 2 1 1 1 1 1 1 2 3 4 5 5 5 6 5 4 4 5 5 7 8 10 11 13 14 15 16 16 17 17 17 17 17 17 17 17 16
3 3 1 4 3 4 4 4 3 3 5 6 4 3 2 7 3 2 2 3 4 4 2 5 3 2 5 6 4 2 4 5 2 9 14 16 17 17 17 16 15 13 12 11 10 7 6 6 5 4 3 2 3 3 4 4 5 5 4 2 1 1 1 2 2 2 2 1 0 1 3 4 4 4 3 3 3 4 5 7 9 10 12 12 12 13 14 15 15 16 17 18 19 19 19 18 18
2 2 3 6 4 5 6 6 6 3 4 5 3 2 2 7 6 4 3 3 5 5 5 5 5 6 8 9 9 8 7 5 3 8 13 14 15 15 17 18 16 16 13 11 10 7 7 6 5 4 3 3 2 2 2 2 3 3 3 2 2 2 2 3 3 4 4 3 3 2 2 2 2 1 0 2 2 3 5 6 9 11 12 10 9 11 12 11 11 13 15 16 18 18 17 17 17
2 3 4 6 5 5 4 6 5 3 6 5 5 3 1 5 5 4 5 9 8 8 8 4 6 9 10 12 14 12 9 7 7 10 14 15 16 16 18 18 17 17 14 10 8 7 7 7 6 5 4 4 3 1 1 1 2 3 3 3 3 4 4 4 4 4 4 4 4 5 5 5 4 3 3 2 2 3 5 6 8 11 11 8 7 10 11 9 8 10 12 13 15 15 15 15 15
2 3 7 6 5 6 4 5 6 6 6 5 8 6 4 7 4 2 4 11 11 9 8 5 8 9 9 11 13 11 8 9 10 12 15 17 19 20 20 20 20 19 14 10 8 7 8 7 7 6 5 5 4 3 2 1 2 4 5 5 5 5 5 5 5 4 5 5 4 5 6 6 6 5 4 2 2 3 5 5 7 10 10 8 7 8 9 9 9 9 10 12 14 15 14 13 13
2 5 7 4 3 6 5 6 8 7 4 4 7 7 9 9 2 3 5 10 11 8 8 8 11 11 10 10 11 11 8 9 11 13 15 17 20 22 23 24 23 19 13 11 10 9 9 8 8 7 7 7 6 5 3 3 3 4 5 5 5 5 5 4 4 3 3 3 3 4 5 5 4 3 3 1 2 3 3 4 6 8 8 7 6 7 9 10 10 9 9 11 15 15 13 12 12
2 5 5 3 3 5 5 5 7 6 3 4 5 7 8 6 2 5 7 11 10 6 7 10 12 11 10 9 8 7 6 8 9 11 14 17 19 22 24 25 24 20 14 12 11 10 10 10 9 9 9 8 7 6 5 4 4 5 5 5 5 4 4 3 3 2 2 2 3 3 4 3 3 2 2 1 1 2 3 4 5 6 6 6 6 5 7 9 10 9 9 11 15 16 13 11 11
4 5 2 4 4 6 4 3 6 3 3 5 4 5 4 6 10 7 10 16 11 9 10 9 10 11 9 7 6 6 8 9 9 12 17 18 20 23 25 25 25 22 17 13 11 12 12 10 10 11 11 10 9 8 7 6 5 5 5 5 4 3 2 2 2 2 2 2 2 2 2 2 2 2 1 1 1 1 4 5 6 6 6 6 6 5 6 7 9 9 9 12 14 15 14 12 11
6 6 4 7 8 9 6 6 8 5 7 9 5 6 7 11 13 7 13 16 9 12 14 9 9 10 9 8 9 10 10 10 12 18 20 20 23 24 23 23 22 19 16 15 13 13 12 11 11 11 11 12 11 10 9 8 7 6 6 5 4 3 1 2 2 3 2 2 3 2 0 0 0 1 1 0 1 3 5 7 7 8 7 7 7 7 7 7 8 8 9 10 12 13 13 13 13
7 6 4 6 7 9 8 7 8 8 8 8 7 9 11 14 11 12 20 15 8 14 15 9 8 9 9 11 13 11 10 11 14 18 20 22 24 21 20 19 17 15 16 17 16 15 14 12 11 11 12 13 13 12 11 10 9 8 7 6 5 4 2 3 3 3 4 4 5 3 1 1 2 2 2 2 2 4 5 5 7 7 7 7 7 7 8 8 8 8 9 9 9 10 10 12 13
5 5 5 6 7 8 8 8 8 8 6 4 9 12 13 13 10 14 17 13 13 15 15 11 9 10 11 12 14 13 11 12 14 16 19 22 20 18 20 18 17 17 17 18 18 17 16 14 13 12 12 13 14 14 14 12 11 11 9 8 7 6 5 5 5 5 5 5 6 5 3 2 3 3 4 4 4 4 4 4 5 6 5 5 5 6 8 9 9 10 11 10 9 9 8 8 10
5 7 9 8 9 9 6 8 7 7 6 5 9 14 16 10 7 10 7 7 11 11 13 11 8 10 12 13 12 11 10 13 16 14 14 15 15 18 21 19 19 19 18 20 19 18 17 16 15 14 13 13 14 15 16 16 15 13 12 11 10 9 7 6 5 5 6 6 6 5 4 3 4 4 5 5 4 3 3 4 4 4 4 3 4 6 9 10 10 11 11 10 10 10 9 8 8
7 8 13 12 10 10 6 7 7 5 5 6 7 14 19 10 8 13 9 8 9 10 14 11 8 9 11 13 11 7 7 15 17 11 10 14 17 21 22 23 23 21 22 23 21 19 18 17 16 15 14 14 15 17 18 18 17 16 15 15 13 11 8 6 6 5 5 5 5 4 4 4 4 4 5 4 4 4 4 4 4 4 4 5 6 8 10 10 10 11 9 9 9 9 9 10 9
7 6 12 13 10 11 9 8 6 6 5 5 2 12 21 12 11 16 13 13 12 11 14 10 8 9 9 11 9 7 8 13 12 10 17 21 21 22 23 25 25 26 25 24 22 21 19 18 17 16 15 15 16 18 20 20 19 18 18 17 15 12 10 7 6 5 4 4 3 3 3 3 3 4 3 3 4 4 4 4 4 4 4 6 8 9 8 9 11 12 10 9 9 9 10 11 11
8 6 8 10 10 8 7 5 2 5 5 5 3 7 18 8 6 13 8 7 7 7 10 8 8 8 8 10 7 9 9 10 10 15 23 23 21 22 23 24 26 29 27 25 24 23 22 20 19 17 16 16 17 19 21 21 20 21 21 19 16 14 11 8 7 5 4 3 3 3 3 3 3 3 3 2 2 3 4 4 5 6 6 7 7 8 8 10 13 13 12 11 11 12 12 12 12
6 6 5 5 7 5 2 3 3 2 4 4 6 6 16 6 2 9 4 4 3 5 8 7 8 8 8 9 7 9 10 9 13 19 23 21 20 22 24 26 28 29 29 28 26 25 24 22 20 19 18 18 19 20 21 22 22 22 21 19 17 15 12 10 8 6 4 3 3 4 5 5 4 2 2 2 2 3 3 4 6 7 7 7 7 8 8 10 12 13 13 13 14 14 14 14 14
1 4 6 2 5 7 4 5 2 5 5 2 7 6 15 9 3 7 4 4 6 9 11 9 10 11 10 10 7 8 10 9 12 16 18 18 20 22 26 29 30 30 30 30 28 26 25 23 21 20 20 20 21 22 23 23 23 22 20 19 17 15 13 11 9 6 4 4 4 6 6 7 6 4 3 2 2 3 4 5 6 7 7 7 8 8 8 8 10 12 13 14 15 15 15 15 15
1 3 7 5 6 8 7 6 3 3 4 2 6 7 13 9 3 8 9 10 13 14 16 14 13 13 11 10 7 7 8 8 8 10 13 16 20 24 28 31 31 31 31 30 30 28 26 24 22 22 22 23 24 25 25 25 24 22 20 18 16 14 12 10 9 6 5 4 5 6 8 8 9 8 7 5 3 3 4 5 5 6 7 7 8 8 9 9 9 10 12 13 14 14 14 15 15
2 3 6 6 6 8 6 4 5 5 4 4 5 8 16 15 9 12 13 11 12 16 17 16 14 12 11 9 7 7 7 7 7 7 11 15 19 23 27 29 30 30 30 30 30 29 27 26 24 24 25 25 27 27 27 26 25 22 20 17 15 13 11 10 9 7 6 6 7 8 9 10 10 10 10 9 7 5 5 5 5 6 6 7 8 8 9 9 10 10 11 11 12 12 13 14 15
0 3 4 6 5 8 8 4 4 6 6 7 7 9 19 23 17 14 12 9 12 17 16 14 12 11 12 10 8 7 6 8 8 8 12 14 18 22 25 27 29 30 30 29 29 29 28 27 26 26 27 28 29 29 28 27 25 23 20 17 14 13 12 11 9 9 10 10 10 11 10 11 11 10 11 10 10 10 9 8 7 7 7 7 7 7 8 9 10 11 11 11 10 10 11 13 15
1 4 3 6 6 9 10 6 4 3 6 10 10 12 19 26 24 16 11 9 12 17 15 12 11 11 11 10 9 7 8 9 9 12 14 14 17 21 23 26 28 29 30 30 30 30 30 30 29 29 30 30 31 30 29 28 26 23 20 18 15 13 12 11 11 11 12 13 13 13 12 13 13 12 13 12 12 13 13 13 12 12 11 10 10 11 12 12 12 12 12 12 11 10 11 14 16
6 5 6 10 10 13 11 6 6 4 6 12 11 12 18 25 27 19 11 10 12 15 15 14 13 12 11 12 11 9 9 7 5 11 14 15 17 19 22 24 27 28 28 29 31 31 31 32 32 33 32 32 32 31 30 29 27 24 21 18 16 15 13 13 14 14 14 15 15 14 14 15 14 14 14 14 14 15 15 15 15 15 15 15 15 15 14 14 14 14 13 13 13 13 14 16 18
9 7 9 11 10 13 12 7 9 7 6 12 12 11 18 25 25 19 11 10 13 14 15 17 17 15 12 13 13 10 7 1 3 7 10 14 16 19 21 24 26 28 28 29 30 31 31 32 33 34 34 32 31 30 29 28 25 23 21 19 18 16 14 14 16 16 16 16 16 15 16 15 15 15 15 15 15 15 16 16 16 16 16 16 16 15 15 15 16 16 16 15 14 14 15 17 20
8 6 7 9 8 9 11 8 9 6 6 10 11 8 16 23 23 19 14 13 14 14 16 19 18 17 13 12 12 10 7 4 6 7 8 13 16 18 20 22 24 26 28 29 30 31 31 31 33 34 33 32 30 28 27 25 23 21 19 19 18 18 18 17 18 18 16 16 17 16 16 15 15 16 16 16 16 16 16 17 17 16 16 17 16 16 16 17 17 17 18 18 15 15 15 17 19
5 6 6 9 8 5 9 8 4 3 4 7 11 8 13 21 21 18 15 14 14 13 17 19 16 15 14 13 12 10 9 8 9 10 9 11 13 16 19 21 22 23 26 28 29 30 31 31 32 32 31 30 28 26 24 24 23 21 20 20 19 19 20 20 19 19 17 16 17 17 16 16 16 16 17 16 16 17 17 17 17 17 17 17 17 17 18 18 18 18 18 19 18 18 17 16 17
7 9 9 9 10 8 11 10 5 6 6 8 10 9 11 16 16 15 10 7 10 11 13 15 13 13 12 11 12 11 11 11 12 13 11 10 12 15 17 18 20 22 23 25 27 29 29 30 30 29 28 27 26 25 24 25 25 25 25 24 22 22 22 20 19 19 17 17 18 18 18 17 17 17 17 17 17 17 17 17 17 16 17 17 17 17 17 18 17 18 18 18 18 18 16 14 14
9 10 11 12 14 14 13 13 8 6 7 6 5 6 8 10 13 14 8 5 7 7 8 11 11 12 10 9 12 12 10 10 11 12 12 10 10 12 13 15 18 19 20 21 24 26 27 28 28 28 27 26 25 25 25 25 25 26 27 27 26 25 21 17 18 18 17 17 18 18 18 17 16 16 16 16 16 15 15 15 15 15 16 16 16 16 17 17 17 17 17 17 17 16 15 14 14
9 5 8 12 14 13 13 12 7 4 6 3 3 5 8 11 14 13 7 9 11 7 7 9 9 11 11 10 12 12 8 7 8 9 10 9 9 10 12 15 17 18 19 20 23 24 26 26 27 28 28 27 26 25 24 24 24 25 25 25 26 25 22 18 18 18 17 17 18 17 17 16 15 14 14 14 14 14 14 14 14 14 15 15 15 15 17 17 16 16 15 15 15 15 16 14 14
6 3 6 9 11 10 11 9 6 5 7 6 4 7 7 10 16 12 6 12 18 10 8 9 9 12 13 14 13 11 8 8 8 8 10 10 11 11 12 15 16 18 19 21 23 25 25 26 27 28 28 28 27 26 24 23 24 25 24 24 24 22 22 22 19 18 17 17 17 16 16 16 15 14 13 13 12 12 12 12 13 13 14 15 15 15 16 15 14 14 14 14 15 15 16 15 13
7 3 3 6 7 7 7 5 5 6 5 7 9 7 4 7 14 14 8 14 21 15 8 9 11 12 13 16 15 10 8 7 9 10 12 11 11 13 15 16 16 18 19 20 22 24 25 26 27 28 28 28 27 26 24 22 22 23 24 25 24 22 23 23 20 18 17 16 16 16 15 15 15 14 13 12 12 11 12 12 12 12 13 14 14 14 14 14 14 14 14 15 15 15 15 15 13
6 4 4 3 2 4 4 2 5 5 2 9 12 5 3 7 12 14 10 12 16 12 7 8 10 11 12 15 13 7 5 6 8 9 10 11 13 16 18 18 18 18 18 19 21 22 24 25 26 27 27 27 26 25 24 23 23 23 24 25 25 26 25 23 21 18 17 16 16 16 15 15 14 14 13 12 12 12 12 12 12 13 13 13 13 13 13 14 14 15 15 15 14 14 14 14 13
3 5 5 6 4 3 3 3 2 3 3 12 15 6 4 6 9 13 13 10 10 8 8 7 7 9 11 13 11 5 5 5 7 8 8 9 13 17 19 18 17 17 17 19 20 21 23 24 25 26 25 25 25 25 25 25 24 23 24 24 25 27 26 24 22 19 16 15 15 15 14 14 14 14 13 12 12 12 12 12 12 12 12 12 13 13 14 14 14 14 14 14 14 14 14 13 13
2 1 2 4 5 2 1 1 3 2 6 8 9 4 6 6 9 14 11 5 7 10 9 7 8 9 9 11 10 4 4 5 7 8 9 9 11 14 16 17 17 17 18 18 19 21 23 24 25 26 24 24 25 25 26 26 25 24 24 24 25 26 25 23 21 19 16 15 14 14 14 14 14 14 14 13 13 12 12 12 12 12 12 13 14 14 14 14 14 13 13 13 14 14 13 13 13
2 2 0 1 3 2 1 2 2 3 6 4 2 2 4 9 13 18 13 3 6 12 9 7 10 11 10 11 10 3 3 5 7 8 8 9 10 10 13 15 17 17 17 18 18 20 22 23 25 26 24 23 24 25 26 26 25 25 25 25 25 24 23 22 20 18 16 15 14 13 14 14 15 15 14 14 14 13 12 12 13 13 14 14 14 13 13 13 13 13 13 13 13 13 13 13 12
4 3 2 2 2 2 3 3 1 3 5 5 3 1 3 8 10 15 17 11 10 14 13 10 10 11 11 11 8 1 5 6 6 7 7 8 8 9 12 15 17 17 18 18 18 19 21 22 24 26 24 23 24 25 26 26 26 26 25 24 24 23 22 21 19 18 16 15 14 14 14 15 15 16 15 15 14 13 13 13 13 13 13 13 12 12 12 12 12 13 13 13 13 12 12 12 11
4 4 3 2 2 3 3 2 2 3 4 5 2 1 3 6 7 7 7 4 5 8 10 7 6 8 9 7 3 3 5 6 6 7 7 7 8 10 13 15 16 18 19 19 19 19 20 21 23 25 25 24 24 25 26 26 27 26 25 24 23 22 21 20 19 17 16 15 14 14 14 15 15 16 15 15 13 12 12 12 11 11 11 11 11 11 11 11 11 11 11 11 11 11 11 11 11
2 3 3 2 3 3 2 4 5 4 6 5 2 3 5 7 16 15 5 3 7 8 8 7 7 8 5 4 4 4 5 6 6 7 8 8 8 11 13 13 14 16 17 17 18 19 21 22 23 24 25 25 25 25 26 26 27 27 25 24 23 21 20 19 19 17 16 15 14 14 14 14 15 15 14 13 12 11 11 11 10 10 10 10 10 10 10 10 10 10 10 10 10 10 10 10 9
1 2 2 3 3 5 1 5 4 3 6 5 2 5 8 8 16 15 6 8 12 10 10 10 10 9 6 6 7 5 5 6 6 6 7 8 9 11 13 14 15 15 15 15 15 16 20 22 23 24 24 24 25 25 26 26 27 27 25 24 22 21 20 19 18 17 16 15 14 13 13 14 13 13 12 12 11 11 11 10 10 10 9 9 9 9 9 9 9 9 9 9 9 9 9 9 8
3 3 4 2 1 3 2 1 2 2 4 3 2 7 11 9 9 5 3 3 9 8 8 9 10 9 8 9 8 6 5 5 6 6 7 7 8 10 13 14 15 15 15 15 15 15 17 20 23 24 24 24 25 25 26 26 27 26 25 24 22 21 19 18 17 16 15 14 13 13 13 13 13 12 11 11 11 11 10 10 9 9 9 9 9 9 9 9 9 9 9 9 9 8 8 7 7
4 2 1 1 1 1 1 1 2 3 4 5 6 8 11 12 10 8 8 7 9 8 6 7 9 8 9 10 9 5 5 6 6 6 7 7 7 10 14 16 16 16 15 15 15 16 17 18 21 23 23 23 24 24 25 26 26 26 25 23 21 20 18 18 16 15 14 13 13 13 12 13 13 12 11 10 10 10 10 9 9 9 8 8 9 9 9 9 9 9 8 8 8 8 8 7 7
1 1 1 2 1 2 1 1 0 2 3 6 9 9 12 12 6 8 12 7 7 9 5 6 10 9 9 9 7 5 6 7 6 7 7 7 8 11 15 17 17 18 17 17 16 16 18 18 19 21 22 23 22 22 24 25 25 25 24 23 21 19 18 17 16 15 14 14 14 13 13 13 12 11 10 10 10 10 9 9 8 8 8 8 8 8 8 8 8 8 9 8 8 8 8 8 7
2 2 3 3 2 1 1 2 2 2 4 5 7 8 12 10 3 4 9 6 6 8 6 7 9 9 10 9 6 6 7 7 7 7 7 8 8 12 17 18 19 19 18 18 17 18 18 18 19 20 21 22 21 21 22 24 24 24 23 23 21 19 18 17 16 16 15 15 14 13 12 12 11 10 9 9 9 9 9 8 8 7 7 7 7 8 8 8 8 8 8 8 9 8 8 8 9
6 5 6 6 5 3 3 4 3 3 3 5 6 9 15 9 5 4 8 8 6 6 6 8 8 10 11 7 5 6 7 7 7 7 8 8 8 11 16 18 18 19 18 18 18 19 19 19 19 20 21 22 21 21 22 23 24 23 22 22 21 20 19 18 17 16 15 15 13 12 11 10 10 9 8 8 9 9 8 7 7 7 7 7 7 7 7 8 8 8 8 8 9 9 10 10 10
Wind_Direction
344 343 342 334 330 326 324 43 37 323 73 334 283 226 273 246 274 298 281 271 255 247 224 172 143 140 123 170 191 197 191 181 189 166 212 240 204 176 166 173 179 179 177 169 170 164 165 173 179 185 190 195 193 187 189 202 202 210 213 216 219 218 216 218 220 220 225 226 227 230 233 232 235 233 232 236 234 235 235 238 240 243 249 254 253 250 248 247 250 251 254 257 258 263 269 268 262
346 345 349 338 336 355 299 69 76 333 43 320 285 183 266 313 317 250 236 217 211 259 305 225 159 84 45 77 145 145 258 219 193 179 233 251 215 195 171 170 177 175 174 169 166 160 164 174 183 191 192 198 199 192 188 204 213 219 223 227 224 221 221 222 224 223 226 231 231 231 236 234 235 235 233 235 236 240 239 242 245 244 245 249 254 257 256 256 257 256 259 262 266 270 276 276 268
347 346 353 345 344 38 50 37 91 62 43 276 283 233 276 338 229 240 233 221 228 286 321 251 167 135 85 16 168 158 270 257 213 209 274 230 209 197 176 170 170 170 173 171 164 161 165 173 186 193 194 197 201 200 195 205 219 226 234 238 232 229 229 228 228 228 229 231 234 234 235 236 237 237 237 238 236 237 239 239 243 246 245 244 244 248 251 253 258 259 263 264 271 276 276 276 272
347 345 350 353 12 31 61 37 120 128 218 236 284 262 242 228 243 264 255 252 264 310 325 184 263 214 148 262 249 172 265 272 224 187 252 222 194 180 175 170 170 171 174 178 174 167 166 169 180 191 194 191 199 208 201 207 220 224 236 245 244 240 240 239 238 239 240 239 239 241 240 241 240 240 242 243 243 242 246 248 252 258 260 261 256 256 258 257 262 265 267 268 271 275 277 277 276
345 346 351 10 84 20 87 71 97 123 223 193 261 266 229 217 254 288 273 284 287 266 253 149 282 274 153 236 189 170 245 268 251 196 219 233 185 173 172 172 176 175 178 183 182 175 172 169 167 185 195 188 193 207 202 208 219 222 227 239 249 247 243 242 244 245 247 249 248 251 251 250 248 247 248 249 252 254 256 258 263 269 272 277 276 274 273 270 271 273 274 274 274 275 279 281 281
346 351 12 41 93 103 113 151 163 196 233 171 209 260 239 220 237 293 291 297 280 223 214 183 251 301 300 259 185 206 217 95 215 197 212 202 177 175 175 178 181 183 188 190 187 180 176 177 168 176 194 194 196 204 207 212 224 225 220 229 248 249 243 240 245 248 249 254 254 256 257 258 259 258 259 261 266 269 270 271 273 276 278 281 284 284 280 279 278 278 278 279 280 279 280 281 283
353 354 22 45 45 34 105 196 206 227 243 177 194 251 252 240 216 314 318 321 293 231 192 222 221 93 262 286 280 241 210 203 190 193 206 181 178 179 181 185 188 191 197 199 194 189 188 190 185 178 184 197 200 207 215 220 232 230 220 226 239 244 243 242 247 249 251 255 257 260 261 263 264 264 266 267 271 274 278 280 280 280 281 281 284 285 283 284 283 281 281 281 281 281 282 280 281
2 3 31 66 10 14 87 232 243 212 247 216 218 242 246 249 214 305 299 265 276 281 265 264 285 143 269 339 277 261 237 228 232 230 208 184 183 185 189 191 194 202 209 213 207 204 205 205 203 198 189 195 207 215 222 223 227 229 228 228 231 238 240 243 247 250 253 257 258 260 262 265 266 265 265 267 272 276 280 281 282 281 280 280 281 284 285 283 283 283 283 283 281 282 284 284 281
14 23 60 71 31 344 9 274 272 231 255 257 251 249 248 257 213 229 264 255 254 263 259 251 172 195 280 348 259 282 291 237 235 235 213 192 190 191 196 194 197 210 225 230 228 226 223 225 222 227 225 221 233 237 239 228 219 221 231 228 223 231 237 243 247 252 257 257 260 261 264 267 267 266 264 266 273 277 280 282 282 280 277 277 280 284 284 282 280 281 282 282 281 281 283 285 283
22 26 84 66 55 312 316 267 257 250 250 251 260 256 254 261 223 214 239 262 239 198 264 228 168 232 261 298 265 288 284 240 241 238 216 196 195 197 199 196 202 213 232 242 246 250 243 247 246 250 252 244 251 259 268 256 225 218 219 219 221 225 233 242 244 252 254 253 256 259 260 256 251 255 257 259 266 271 278 282 282 282 279 278 281 282 283 284 283 282 281 280 280 279 280 282 282
19 1 86 78 37 282 280 258 265 259 263 289 284 264 240 229 215 224 216 259 243 204 263 158 188 230 198 290 263 262 263 253 241 231 210 199 201 203 200 196 204 218 234 247 253 256 252 255 260 261 266 262 259 262 272 281 258 226 206 206 217 223 233 237 236 243 246 246 250 253 255 250 247 253 259 261 265 271 278 284 287 289 289 286 284 284 283 285 286 286 284 283 282 280 280 282 282
19 338 62 103 213 242 244 252 276 278 291 299 284 275 217 166 160 228 209 237 237 220 243 187 190 171 133 287 262 286 285 259 236 217 206 204 207 207 205 200 202 219 232 248 252 254 252 252 262 265 270 270 268 265 262 268 271 257 218 207 210 218 232 232 223 229 243 249 247 252 260 262 265 268 272 272 273 282 289 293 297 298 298 295 290 288 286 287 289 288 287 287 287 287 288 289 286
105 126 83 152 197 207 244 255 281 300 303 257 249 273 160 144 203 229 194 210 208 203 250 213 166 122 179 251 280 312 294 272 236 210 210 207 209 211 213 210 205 221 233 245 248 251 252 250 260 266 273 272 269 265 261 259 261 260 247 228 221 226 233 227 215 221 237 243 239 244 255 258 258 265 281 291 292 295 300 304 307 307 305 302 299 296 294 293 292 291 290 289 291 294 294 295 293
153 145 117 222 243 165 236 259 279 283 279 250 247 288 317 214 234 212 153 213 233 199 246 210 148 128 247 251 316 303 275 302 227 205 211 206 209 215 221 220 212 224 237 241 240 243 251 256 258 264 273 274 271 265 263 259 255 250 242 234 229 237 240 232 223 228 240 245 243 244 249 254 254 263 283 301 306 309 314 316 318 316 313 310 306 303 300 298 296 295 292 291 291 293 294 296 297
170 131 100 170 295 286 230 228 246 248 268 269 254 297 328 270 209 132 179 222 253 214 237 202 153 186 211 179 250 254 266 330 216 202 209 208 209 215 224 225 219 225 237 240 237 238 249 263 263 269 275 278 279 270 267 262 256 249 236 228 218 223 234 260 269 263 268 272 270 262 258 259 260 268 279 294 312 326 331 332 329 323 318 313 308 304 302 301 300 298 296 296 293 290 291 293 297
127 106 75 219 237 240 224 207 211 256 265 261 263 343 338 290 232 212 230 190 277 272 179 209 184 204 176 175 220 232 341 346 224 203 208 210 211 216 225 226 225 227 235 241 239 238 244 259 262 269 277 286 290 283 277 267 259 252 240 234 215 200 168 87 31 1 325 306 303 291 277 267 262 268 276 301 332 346 349 347 339 332 325 317 310 303 299 300 300 299 299 299 296 293 290 286 292
89 88 100 234 213 207 210 198 195 205 258 278 312 46 32 304 295 256 253 154 267 278 226 234 224 196 186 202 246 276 338 337 264 208 207 212 215 218 226 226 228 230 233 239 238 238 236 244 248 253 264 280 293 297 289 275 263 253 238 226 185 142 122 108 104 100 95 99 70 269 265 259 251 259 279 325 351 3 2 356 348 342 335 328 321 313 306 302 301 303 303 303 301 298 295 289 286
105 118 202 230 201 201 195 192 204 191 262 288 313 49 34 303 304 311 327 316 295 283 263 270 281 262 237 249 271 280 289 295 252 215 209 214 219 221 228 227 229 234 235 234 233 233 232 234 234 234 240 246 264 290 293 278 253 232 207 176 142 119 110 103 102 99 95 95 92 104 126 166 188 207 314 13 24 19 7 1 356 350 343 341 347 346 334 315 310 313 314 314 310 302 300 298 291
169 149 236 236 192 208 193 197 219 227 263 287 285 286 281 268 287 338 319 295 297 287 279 297 289 277 273 269 266 265 269 264 238 218 214 216 220 222 228 229 228 235 240 234 221 221 227 224 221 220 222 227 229 231 245 226 205 186 166 149 125 110 104 103 100 98 91 86 86 94 102 109 108 102 93 77 47 14 7 5 4 5 1 352 350 358 357 341 323 323 330 332 327 317 308 304 300
202 191 250 241 203 243 241 229 234 237 265 296 289 295 296 270 273 325 292 281 279 269 269 281 276 271 275 274 270 267 259 252 238 222 221 223 226 226 230 232 232 235 242 239 216 209 217 211 211 211 212 219 213 204 193 164 159 154 150 138 122 113 108 107 103 103 97 89 93 99 100 97 93 90 84 70 34 12 10 12 13 19 18 6 337 335 351 352 338 329 338 342 337 332 326 318 310
212 199 247 238 202 256 244 238 248 248 246 255 284 311 299 284 248 225 261 272 272 264 250 239 251 260 260 262 272 274 258 246 236 225 225 228 232 231 233 237 239 238 242 242 218 207 213 209 211 209 210 209 201 193 169 150 149 147 142 131 122 117 110 107 99 100 103 99 105 112 113 107 103 98 88 82 53 39 24 23 20 16 18 14 350 326 329 337 340 334 332 340 339 337 339 339 329
242 221 252 248 214 263 244 238 255 245 228 247 282 288 285 303 277 224 233 251 261 265 243 224 233 246 250 254 265 268 256 243 236 228 227 230 234 234 235 238 241 238 237 237 218 211 217 216 216 213 209 200 193 185 167 164 152 139 132 124 118 112 106 102 92 83 89 111 116 119 130 133 134 134 127 133 77 60 31 19 13 1 358 0 1 349 334 327 331 333 324 334 340 341 346 348 340
259 247 283 273 240 257 258 265 266 249 254 255 257 272 299 313 287 251 233 248 255 262 249 228 233 239 251 271 263 247 249 245 237 232 230 232 235 236 236 235 238 237 233 232 218 216 222 223 222 214 204 192 186 180 174 170 152 141 135 128 120 114 108 91 67 55 64 127 141 134 135 150 159 171 179 209 281 313 333 341 341 341 339 344 7 13 1 345 339 339 331 332 333 338 349 351 344
263 275 312 284 260 259 267 272 273 275 264 256 261 303 301 278 279 271 252 256 256 262 257 238 243 253 266 274 258 247 247 246 245 243 239 239 240 239 238 237 239 238 231 226 219 218 220 221 220 209 197 186 181 177 175 169 154 148 144 144 144 143 140 69 51 48 61 107 132 142 170 247 195 166 163 164 297 302 312 315 316 323 324 332 3 16 13 13 6 360 351 342 330 327 338 344 341
253 261 278 276 269 272 279 278 281 280 266 263 272 283 270 259 271 271 264 268 261 257 261 253 254 265 267 261 258 256 251 251 252 251 247 245 245 242 242 242 240 236 228 220 214 213 212 212 211 201 191 181 177 173 169 166 157 155 158 163 161 152 130 94 80 73 82 95 103 105 94 65 69 65 52 42 350 326 322 314 313 324 325 328 356 11 8 9 12 19 17 9 352 335 330 330 332
257 267 279 288 289 287 288 282 279 277 266 258 275 275 265 261 271 271 265 263 256 257 266 265 258 260 260 257 256 253 249 252 251 250 249 248 246 241 242 243 237 233 224 211 205 205 203 202 201 197 191 180 175 170 164 161 159 163 166 164 158 150 135 116 103 88 89 92 90 89 86 71 58 37 24 19 350 338 337 323 326 338 338 338 356 358 352 352 360 17 20 15 13 5 352 339 330
309 310 298 292 283 278 270 274 278 286 275 238 261 273 269 263 256 267 270 248 247 258 268 262 251 250 253 256 254 251 248 250 250 249 252 248 238 234 237 237 233 226 209 197 195 196 196 195 195 193 190 182 173 167 161 160 162 165 164 158 157 152 143 128 108 94 90 83 74 74 72 65 53 38 29 23 16 20 9 349 353 357 352 12 25 357 339 337 351 10 15 12 11 10 9 4 351
322 317 306 303 301 294 275 271 269 273 276 229 248 278 274 256 232 260 278 262 245 253 264 262 255 249 251 259 260 259 251 253 254 244 241 240 231 229 228 226 221 206 193 189 187 186 187 187 188 185 181 176 170 166 161 160 162 162 159 156 155 153 151 142 120 105 95 80 69 60 50 47 30 14 16 24 31 33 21 4 6 7 359 17 18 348 332 335 351 2 5 7 8 5 4 3 1
311 315 311 306 314 308 290 277 241 218 238 211 240 294 278 255 235 258 263 252 245 249 265 272 264 258 260 267 272 267 255 257 255 234 237 240 235 227 221 220 206 189 183 183 179 177 178 178 179 177 173 170 167 167 163 161 161 158 158 157 157 156 156 150 133 118 104 89 69 44 28 20 348 329 339 4 26 28 22 12 15 20 5 8 0 338 335 349 354 354 355 359 2 359 355 356 357
303 314 307 304 318 308 288 295 235 210 233 198 140 291 278 263 219 254 263 260 268 272 277 286 276 273 273 273 278 271 262 257 247 238 242 241 235 225 215 208 192 181 175 173 174 171 171 172 174 171 168 168 166 167 164 160 158 157 158 158 159 160 159 155 141 131 116 92 54 31 17 5 347 328 327 338 3 11 16 16 22 26 19 16 358 340 349 357 350 350 355 358 2 2 358 356 353
309 314 297 313 313 283 285 5 83 200 250 186 154 248 272 277 185 267 337 48 353 306 281 281 276 277 277 275 276 274 269 255 248 248 248 240 229 216 203 190 179 177 171 168 171 168 168 168 171 168 165 167 165 166 163 157 156 156 157 157 158 159 157 154 145 139 121 81 41 26 18 14 13 0 342 333 341 348 359 8 14 16 16 12 358 350 353 346 340 347 356 358 360 1 359 357 354
334 294 289 310 264 265 307 322 233 245 284 178 163 232 271 272 241 275 337 27 341 313 291 290 284 280 279 280 277 272 272 267 259 253 244 229 213 199 189 180 173 174 171 169 168 166 166 165 168 166 162 165 162 161 158 154 155 154 155 154 154 155 152 149 141 135 116 75 42 33 31 32 40 44 40 10 351 358 8 13 14 13 8 3 359 357 356 345 337 343 352 355 357 358 355 354 353
169 210 268 266 256 283 312 317 297 267 300 238 193 236 272 276 289 298 317 331 325 309 297 295 288 285 282 280 279 272 276 280 271 247 225 207 195 187 181 176 172 173 171 171 169 167 165 162 165 164 160 161 158 157 155 152 153 151 152 150 148 148 145 141 132 127 110 81 58 52 48 48 51 56 61 56 43 27 18 16 12 9 5 2 1 357 360 1 349 344 349 352 355 355 352 350 348
249 190 258 267 261 278 293 317 333 343 327 282 255 260 270 275 288 298 305 314 304 291 290 290 286 286 282 279 278 271 270 266 260 240 214 195 185 181 177 173 171 171 170 170 170 169 166 162 163 161 158 158 156 155 153 151 150 148 147 145 145 141 134 127 123 120 107 95 84 73 63 59 58 58 61 63 65 60 47 33 14 6 358 354 353 353 1 5 2 359 357 358 358 354 353 352 346
28 189 249 281 270 265 271 277 298 330 325 297 296 285 280 282 281 279 286 289 282 279 280 283 282 280 280 279 271 263 254 247 240 221 206 192 182 176 173 171 169 168 168 168 168 167 165 161 161 159 157 156 155 154 153 150 148 147 145 142 140 133 124 118 112 107 101 97 91 84 77 71 67 64 64 65 67 68 65 59 48 38 26 15 7 7 12 12 13 14 11 13 12 7 5 1 354
304 208 248 284 287 272 265 257 260 297 299 281 273 274 279 283 281 277 282 275 268 275 278 280 277 273 276 274 266 254 240 241 225 203 199 190 182 176 172 169 167 167 167 166 166 165 164 161 159 158 158 158 156 154 153 150 148 146 144 142 138 128 123 117 107 102 99 95 90 86 81 76 73 70 69 68 67 67 64 62 58 53 47 43 40 39 36 30 28 25 22 21 17 14 10 7 3
279 264 274 277 278 276 275 277 268 243 262 268 255 260 271 274 279 282 283 273 265 274 280 277 273 269 268 267 265 249 239 247 201 188 192 189 184 177 171 168 165 163 164 165 164 163 163 163 160 157 158 161 160 158 157 156 153 150 147 144 137 128 126 121 111 106 102 96 91 87 81 77 75 73 71 70 68 65 63 60 57 54 51 47 46 47 44 39 37 32 29 26 19 18 17 14 8
266 266 272 275 269 276 290 290 268 238 236 267 263 263 270 271 278 284 283 275 268 271 274 274 272 268 263 263 264 249 235 241 146 182 191 190 185 178 173 169 166 163 163 164 162 161 161 162 161 158 159 162 163 162 161 159 157 157 153 145 137 127 123 121 113 108 104 99 94 88 83 80 78 76 73 70 68 65 62 59 56 54 52 49 49 48 44 40 37 34 32 31 27 28 30 24 16
254 259 263 269 270 291 297 267 251 239 217 268 279 272 274 275 278 282 281 272 265 263 264 266 268 268 265 259 260 248 225 194 182 194 197 196 189 182 177 172 170 166 162 162 161 160 160 160 161 158 160 162 162 163 161 157 154 156 153 145 139 130 123 120 115 111 108 104 97 91 87 84 82 80 77 73 71 67 63 60 57 54 52 49 47 45 43 39 36 34 34 32 31 33 35 30 24
248 251 253 264 273 295 286 259 245 262 225 268 291 289 279 280 281 280 271 259 257 254 254 259 262 264 265 260 259 246 222 202 196 200 196 194 190 187 183 176 172 166 162 162 161 160 160 160 160 158 160 161 160 161 160 155 149 147 143 139 137 130 125 123 119 115 113 108 102 98 92 89 87 83 79 75 72 69 65 61 58 54 52 49 45 44 42 39 36 33 32 29 28 28 27 27 26
246 239 241 258 269 256 257 272 302 300 268 264 285 291 275 274 280 281 273 252 252 250 253 263 267 265 266 265 261 247 223 203 197 199 192 188 190 191 187 177 170 166 164 162 161 160 159 158 158 157 158 158 158 159 158 155 149 143 137 132 130 126 125 126 123 118 115 110 104 100 96 92 89 84 79 74 70 67 63 58 54 50 49 47 44 45 43 41 37 32 30 26 27 26 19 22 28
263 244 231 242 259 258 260 278 297 301 282 259 253 273 276 275 274 275 285 288 263 251 250 259 270 274 270 263 260 253 233 209 199 196 190 187 184 181 179 174 169 164 163 162 160 160 157 156 155 155 154 153 154 156 158 159 154 149 144 139 136 132 128 127 126 122 116 110 104 102 99 95 90 84 77 71 66 62 57 52 47 44 44 44 43 44 43 41 37 33 30 25 26 24 16 19 26
274 233 204 226 247 257 264 272 278 273 279 274 180 243 282 291 281 277 293 289 272 254 247 252 262 269 264 257 256 255 241 207 196 189 181 178 171 169 175 175 170 163 162 162 160 158 156 154 153 153 152 150 151 152 156 159 155 151 150 147 144 141 134 128 128 125 118 112 109 107 104 99 92 85 78 70 63 56 51 46 41 39 39 40 40 40 41 39 36 34 31 26 26 22 21 23 19
262 187 172 214 233 244 251 256 257 254 275 286 225 228 268 286 282 289 313 291 282 268 245 247 249 256 262 262 256 252 242 202 186 180 172 175 178 176 174 169 168 164 162 162 159 157 156 154 152 152 150 149 149 150 154 157 155 152 151 148 145 142 136 131 130 127 121 119 116 111 106 101 95 87 78 70 62 54 49 46 42 39 38 38 35 35 37 35 33 32 28 27 26 23 24 26 20
253 250 192 215 224 244 252 248 257 263 284 284 251 220 233 274 280 292 297 279 281 280 251 234 241 248 256 263 261 252 238 201 181 180 175 176 175 170 166 162 164 163 161 160 157 156 155 153 152 151 149 150 150 153 156 158 160 158 156 151 144 139 137 134 134 131 127 125 119 113 108 102 96 89 80 71 64 57 52 48 44 40 38 37 34 33 32 29 27 26 24 23 24 24 25 24 22
257 338 325 297 279 268 266 244 263 271 256 263 262 217 189 273 280 286 279 261 272 285 259 225 234 245 249 261 270 259 224 193 176 176 170 168 163 162 162 158 157 159 160 160 155 153 153 152 153 151 149 151 153 157 161 162 164 162 158 154 147 141 140 139 138 135 130 127 121 115 109 102 96 89 82 74 67 61 55 50 46 43 42 39 36 33 30 27 25 24 23 21 20 21 22 23 22
263 9 330 312 306 265 242 208 227 277 249 258 266 235 200 269 275 267 265 261 268 279 272 258 246 249 255 265 280 270 208 183 165 160 148 144 146 150 153 151 151 155 157 157 153 153 152 150 152 149 148 152 155 160 163 161 161 161 157 154 149 145 144 143 141 136 131 129 123 115 108 102 97 91 85 79 71 64 58 54 51 48 46 42 38 35 31 28 26 24 22 19 18 18 16 17 18
245 18 344 321 298 292 275 195 133 225 254 266 272 213 186 241 258 260 264 254 254 259 259 264 260 256 258 269 287 288 201 176 155 152 147 142 141 147 150 148 149 151 153 154 153 153 152 151 152 148 145 151 155 158 160 158 157 157 154 151 149 147 147 147 143 138 135 131 124 118 113 106 101 96 91 85 77 69 63 60 56 52 48 44 40 37 33 31 28 25 25 21 19 17 14 13 13
148 165 86 324 289 326 294 230 147 228 255 284 303 153 196 243 251 262 270 239 241 261 253 245 261 266 263 269 284 293 160 162 159 158 159 158 155 156 152 149 149 150 151 152 151 153 151 151 152 148 144 148 153 155 157 156 154 153 152 150 148 147 148 147 143 138 134 130 126 122 117 110 104 98 92 85 77 70 64 59 53 50 47 44 41 37 34 31 27 24 24 23 20 18 15 15 15
157 167 170 188 246 293 265 257 254 251 267 295 309 127 252 270 257 252 257 250 246 264 266 256 258 261 262 271 281 222 151 160 166 163 163 166 162 158 155 153 153 152 153 153 151 153 150 148 151 148 143 145 150 152 153 152 149 148 149 148 147 147 146 144 141 137 133 131 128 122 114 107 100 93 88 83 76 69 64 58 53 49 47 43 40 36 32 29 25 23 20 20 20 18 15 13 14
181 167 142 175 206 231 242 249 241 253 282 288 290 151 221 265 264 225 213 232 238 255 274 283 273 259 262 274 261 167 165 164 163 160 162 165 159 155 155 154 154 154 154 154 154 155 151 148 148 146 143 144 147 148 150 148 144 143 145 144 144 145 144 142 138 135 133 130 125 119 109 101 95 90 86 83 78 72 66 60 54 50 45 41 38 34 32 28 25 23 21 20 19 16 14 10 8
224 138 114 218 196 180 239 264 250 270 294 276 234 229 225 254 276 268 236 256 265 259 273 288 284 273 266 259 232 195 185 174 167 165 161 157 151 150 151 149 150 151 152 154 155 157 154 149 147 145 143 144 146 147 147 145 142 141 142 142 143 143 142 140 135 131 129 126 121 115 106 99 94 90 89 86 82 76 70 65 58 53 49 43 40 36 33 30 26 23 20 20 19 15 12 8 4
147 134 188 232 157 137 208 275 270 266 273 267 204 255 271 282 284 278 246 246 261 264 265 264 265 271 273 259 242 217 198 182 168 164 158 151 146 145 146 146 147 148 149 151 153 154 153 149 147 145 144 144 145 146 145 143 142 140 139 140 140 140 140 136 133 129 126 124 119 113 107 102 98 95 92 90 86 81 76 71 65 61 56 49 45 41 36 33 28 24 21 18 18 15 9 5 1
135 196 218 230 100 116 125 268 294 247 250 265 215 256 279 278 278 308 38 286 279 277 265 260 260 263 266 261 248 218 187 169 154 149 145 143 141 139 139 141 144 146 147 148 150 151 150 148 147 145 143 144 144 145 144 143 142 139 137 137 137 137 136 133 131 129 127 126 121 117 113 109 105 100 97 93 90 87 82 77 72 65 59 52 46 40 35 32 27 24 22 17 14 12 8 1 354
174 210 191 104 286 287 114 174 266 267 265 277 263 264 271 260 261 304 323 304 289 282 254 253 261 250 247 256 249 203 160 156 153 147 142 140 140 136 135 136 139 143 144 145 149 150 147 146 146 144 143 143 142 144 144 142 141 138 135 135 135 134 134 133 132 132 132 132 127 124 122 116 111 107 104 101 96 91 84 78 72 64 56 47 41 36 29 25 21 18 17 14 9 5 5 0 354
171 352 12 93 197 224 195 179 193 267 270 281 280 278 270 260 253 287 292 287 277 278 255 238 253 245 241 249 238 190 170 172 164 155 149 143 139 135 136 137 138 141 144 145 147 148 146 147 146 144 143 142 142 144 143 140 138 137 135 134 134 134 134 134 135 137 138 136 132 130 127 120 117 113 109 104 96 89 82 73 66 58 51 41 34 29 24 18 14 10 6 5 1 356 354 351 349
160 240 241 213 207 200 260 239 174 217 260 273 280 276 270 269 170 213 275 274 239 257 252 236 247 248 247 242 211 184 178 173 160 152 149 141 136 134 135 138 139 141 144 146 148 148 148 147 147 145 143 142 143 144 143 139 136 136 136 135 135 135 137 138 139 141 141 136 133 132 126 120 117 112 106 100 91 84 75 67 60 50 44 37 29 21 15 10 5 3 358 352 350 346 343 340 339
182 209 213 210 220 230 271 261 197 184 223 239 256 267 270 274 113 145 274 275 233 227 237 244 244 244 250 246 196 174 168 164 156 150 146 141 137 134 136 139 141 143 145 147 150 151 150 150 149 148 146 144 145 145 142 139 137 137 137 136 137 138 140 142 143 143 140 136 133 128 122 119 115 108 102 95 87 81 73 64 56 47 36 28 22 13 5 359 353 351 347 341 338 335 333 333 333